[[{"header":{"parameterUnit":"m.s-1","parameterCategory":1,"la1":30.2991,"la2":30.254,"lo1":-89.0895,"lo2":-89.0444,"dy":0.0017,"dx":0.0017,"nx":28,"ny":28,"refTime":"2024-06-27T21:00:00:Z","depth":0,"parameterNumber":2,"parameterNumberName":"U-component_of_WINDS"},"data":[0,0,0,0,0,0,0,0,0,0,0,0,0,0,0,0,0,0,0,0,0,0,0,0,0,0,0,0,0,0,0,0,0,0,0,0,0,0,0,0,0,0,0,0,0,0,0,0,0,0,0,0,0,0,0,0,0,0,3.615,3.615,0,3.6118,3.6118,3.6118,3.5957,3.5953,3.5949,3.5945,3.5924,3.5927,3.593,0,0,0,0,0,0,0,0,0,0,0,0,0,3.6083,3.6085,3.615,3.615,3.6149,3.6119,3.6118,3.6118,3.5957,3.5952,3.5948,3.5943,3.5923,3.5927,3.5931,0,0,0,0,0,0,0,0,0,0,0,0,0,3.6088,3.6085,3.615,3.6065,3.6057,3.6119,3.6118,3.6118,3.5958,3.5952,3.5947,3.5941,3.5922,3.5927,3.5931,3.6075,0,0,3.5945,3.5947,0,0,0,0,0,0,0,0,3.6088,3.6091,3.6078,3.6071,3.6062,3.6035,3.6086,3.6104,3.596,3.5996,3.5945,3.5938,3.5967,3.5967,3.5974,3.6074,3.6073,3.5946,3.5948,3.595,3.5952,0,0,0,0,0,0,0,3.6088,3.6091,3.6138,3.6078,3.6069,3.6032,3.6027,3.6089,3.6015,3.5993,3.5981,3.5979,3.5961,3.597,3.5973,3.6073,3.5945,3.5949,3.5952,3.5954,3.6293,3.6299,0,0,0,0,0,0,3.6098,3.6092,3.6139,3.6137,3.6061,3.6038,3.6032,3.605,3.6013,3.6002,3.5984,3.5971,3.5965,3.5968,3.5972,3.614,3.595,3.5955,3.5957,3.6287,3.6295,3.6301,0,0,0,0,0,0,3.6097,3.6103,3.614,3.6111,3.6113,3.6045,3.6067,3.6053,3.6061,3.6006,3.5994,3.6006,3.5961,3.5965,3.6051,3.6137,3.5957,3.5961,3.628,3.6289,3.6298,3.6478,0,0,0,0,0,0,3.6096,3.6104,3.6156,3.6113,3.6115,3.6217,3.6072,3.6056,3.6068,3.6052,3.6024,3.6014,3.5957,3.6045,3.6055,3.614,3.5964,3.6272,3.6284,3.6295,3.6464,3.6492,3.6517,0,0,0,0,0,3.6094,3.6209,3.6159,3.6166,3.6177,3.6222,3.6224,3.6152,3.6076,3.6129,3.6094,3.6015,3.6125,3.6055,3.6065,3.6153,3.6266,3.6281,3.6294,3.6452,3.6487,3.6516,0,0,0,0,0,0,3.6267,3.6202,3.6146,3.625,3.6243,3.6195,3.6259,3.619,3.6207,3.6192,3.6106,3.6101,3.6201,3.6185,3.6107,3.6292,3.6182,3.6199,3.6299,3.6331,3.6357,3.6361,3.5968,0,0,0,0,0,3.6317,3.6355,3.6297,3.6396,3.6394,3.6328,3.6345,3.629,3.628,3.6277,3.6248,3.6246,3.6279,3.6304,3.6332,3.646,3.6454,3.6526,3.6552,3.6574,3.6591,3.6661,3.6693,3.6348,3.6348,3.6347,0,0,3.6422,3.6391,3.6421,3.643,3.6417,3.6463,3.6327,3.638,3.6414,3.6287,3.6365,3.6345,3.6336,3.6444,3.649,3.6434,3.6685,3.6592,3.661,3.6615,3.6679,3.6712,3.6741,3.6357,3.6356,3.6354,0,0,3.6636,3.6614,3.6695,3.6685,3.6666,3.6621,3.6641,3.6604,3.6584,3.6661,3.6567,3.6608,3.6667,3.6666,3.6673,3.6887,3.6817,3.6899,3.7038,3.7107,3.7134,3.7158,3.7238,3.7267,3.6915,3.6915,3.6916,0,3.6769,3.683,3.6746,3.6805,3.6814,3.6697,3.678,3.6776,3.677,3.678,3.6716,3.6789,3.6775,3.6882,3.6935,3.6943,3.6966,3.6903,3.7136,3.7159,3.718,3.7256,3.7286,3.6926,3.6925,3.6923,3.6923,0,3.6997,3.7041,3.7109,3.7102,3.7118,3.719,3.712,3.7147,3.7091,3.7055,3.7137,3.7115,3.7137,3.7158,3.7105,3.726,3.7226,3.715,3.7039,3.7225,3.7295,3.7323,3.6941,3.6937,3.6934,3.6931,0,0,3.7322,3.7267,3.7294,3.729,3.7261,3.7296,3.7364,3.7382,3.7409,3.7409,3.7466,3.7519,3.7449,3.7457,3.7403,3.7464,3.764,3.7381,3.7379,3.7433,3.7813,3.7873,3.7907,3.7591,3.7596,3.76,3.7815,0,3.7529,3.7638,3.7565,3.7688,3.773,3.7619,3.7678,3.767,3.7638,3.7672,3.7637,3.7677,3.7579,3.7584,3.7639,3.7607,3.7715,3.7589,3.7649,3.7652,3.7658,3.7943,3.8006,3.821,3.7841,3.7846,3.7849,0,3.7786,3.7794,3.7921,3.7885,3.79,3.7954,3.7967,3.7999,3.7988,3.796,3.797,3.7901,3.7969,3.7856,3.7952,3.7868,3.7888,3.7876,3.7882,3.7888,3.7764,3.7961,3.8272,3.8305,3.789,3.7887,3.7884,0,3.8015,3.8058,3.8139,3.8139,3.8099,3.814,3.8126,3.8109,3.8125,3.8137,3.8148,3.8169,3.8182,3.8202,3.8143,3.8065,3.8248,3.8129,3.8231,3.8233,3.8278,3.8276,3.8601,3.8285,3.8284,3.8284,3.8283,0,3.8257,3.834,3.8241,3.8293,3.8383,3.8299,3.8392,3.8367,3.8353,3.84,3.8305,3.8353,3.8269,3.8309,3.8263,3.8351,3.8357,3.834,3.8328,3.8351,3.8354,3.8365,3.8351,3.8292,3.829,3.8288,3.8287,0,3.8529,3.8466,3.8548,3.8502,3.8493,3.8562,3.8525,3.8572,3.8532,3.8593,3.8603,3.8543,3.8585,3.8526,3.8563,3.8532,3.8655,3.8619,3.8658,3.8649,3.8755,3.8748,3.9102,3.9146,3.8799,3.8802,3.8805,0,3.869,3.875,3.871,3.8733,3.8723,3.8761,3.8777,3.8698,3.8719,3.8711,3.8761,3.8794,3.8817,3.889,3.8853,3.8881,3.8848,3.897,3.8852,3.8874,3.8854,3.8853,3.8861,3.8996,3.9,3.9003,3.9006,0,3.8982,3.8948,3.8972,3.8986,3.9007,3.9015,3.9017,3.9042,3.8959,3.8988,3.9028,3.9045,3.9081,3.9118,3.9136,3.9125,3.9055,3.9043,3.9069,3.9095,3.9116,3.911,3.8728,3.9036,3.9033,3.9031,3.9029,3.9028,3.9206,3.9255,3.9235,3.9266,3.9258,3.9262,3.9305,3.9269,3.93,3.9321,3.9272,3.9326,3.9316,3.9332,3.933,3.9373,3.9321,3.9357,3.9367,3.9378,3.9396,3.9106,3.9376,3.9375,3.9374,3.9373,3.9373,0,3.9496,3.9477,3.9506,3.951,3.9536,3.9461,3.9459,3.9487,3.9533,3.9528,3.9551,3.9599,3.9633,3.9598,3.9627,3.9668,3.9637,3.9679,3.9678,3.9677,3.944,3.9416,3.9704,3.9704,3.9704,3.9704,3.9704,3.9704,3.9651,3.9732,3.9695,3.9773,3.9754,3.9802,3.9808,3.9813,3.9808,3.9864,3.9891,3.9866,3.985,3.9876,3.9907,3.9895,3.9913,3.9968,3.9946,3.9726,3.9693,3.9663,3.964,3.9971,3.9971,4.018,4.0182,4.0183]},{"header":{"parameterUnit":"m.s-1","parameterCategory":1,"la1":30.2991,"la2":30.254,"lo1":-89.0895,"lo2":-89.0444,"dy":0.0017,"dx":0.0017,"nx":28,"ny":28,"refTime":"2024-06-27T21:00:00:Z","depth":0,"parameterNumber":3,"parameterNumberName":"V-component_of_WINDS"},"data":[0,0,0,0,0,0,0,0,0,0,0,0,0,0,0,0,0,0,0,0,0,0,0,0,0,0,0,0,0,0,0,0,0,0,0,0,0,0,0,0,0,0,0,0,0,0,0,0,0,0,0,0,0,0,0,0,0,0,1.1305,1.1306,0,1.1383,1.1384,1.1385,1.1336,1.1334,1.1331,1.1329,1.1406,1.141,1.1414,0,0,0,0,0,0,0,0,0,0,0,0,0,1.1107,1.1111,1.1305,1.1306,1.1307,1.1383,1.1384,1.1385,1.1336,1.1333,1.1331,1.1328,1.1404,1.1409,1.1414,0,0,0,0,0,0,0,0,0,0,0,0,0,1.119,1.1112,1.1304,1.1292,1.1291,1.1383,1.1384,1.1385,1.1337,1.1333,1.133,1.1327,1.1403,1.1409,1.1415,1.1522,0,0,1.1434,1.1437,0,0,0,0,0,0,0,0,1.1185,1.1197,1.1292,1.1293,1.1292,1.1346,1.1342,1.1431,1.1338,1.1319,1.1329,1.1325,1.1388,1.1396,1.1418,1.1526,1.1529,1.1435,1.1438,1.1441,1.1443,0,0,0,0,0,0,0,1.1179,1.1193,1.1335,1.1294,1.1294,1.128,1.1288,1.1359,1.1372,1.1321,1.1317,1.1327,1.1388,1.1412,1.1419,1.153,1.1434,1.144,1.1444,1.1446,1.1726,1.1729,0,0,0,0,0,0,1.1175,1.1189,1.1333,1.1338,1.1229,1.1286,1.1295,1.1332,1.1371,1.1374,1.133,1.1325,1.1403,1.1412,1.1422,1.1547,1.1441,1.1447,1.1451,1.1722,1.1726,1.173,0,0,0,0,0,0,1.1171,1.1189,1.133,1.1262,1.1279,1.1293,1.1335,1.1336,1.136,1.1379,1.138,1.1353,1.1401,1.1413,1.1497,1.1549,1.145,1.1455,1.1718,1.1723,1.1728,1.1801,0,0,0,0,0,0,1.1166,1.1187,1.123,1.1264,1.1283,1.1406,1.1339,1.134,1.1371,1.1365,1.14,1.1403,1.1399,1.1488,1.1503,1.1556,1.146,1.1713,1.172,1.1727,1.1794,1.1808,1.182,0,0,0,0,0,1.1159,1.1248,1.1233,1.125,1.1337,1.1409,1.142,1.1415,1.1376,1.1417,1.1428,1.1402,1.1541,1.1497,1.1514,1.1569,1.171,1.1718,1.1726,1.1788,1.1805,1.182,0,0,0,0,0,0,1.122,1.1252,1.1236,1.1338,1.1371,1.1401,1.1454,1.1434,1.1478,1.147,1.146,1.1468,1.1556,1.1571,1.1521,1.1673,1.1619,1.1631,1.166,1.1677,1.169,1.1683,1.1466,0,0,0,0,0,1.1245,1.1302,1.1327,1.1415,1.1432,1.144,1.1471,1.1464,1.1497,1.1511,1.1529,1.1561,1.1611,1.1645,1.1693,1.1795,1.18,1.1841,1.1855,1.1865,1.1876,1.1927,1.1945,1.1757,1.1757,1.1757,0,0,1.1298,1.1323,1.136,1.1428,1.1452,1.1509,1.1452,1.1516,1.1558,1.152,1.16,1.1614,1.1649,1.1742,1.1783,1.1757,1.1928,1.1876,1.1884,1.1889,1.1937,1.1955,1.1971,1.1763,1.1762,1.1761,0,0,1.1423,1.1449,1.1523,1.1549,1.1587,1.1591,1.1609,1.1641,1.1648,1.1729,1.17,1.1749,1.1837,1.1862,1.1886,1.2017,1.1992,1.2033,1.2102,1.2152,1.2167,1.218,1.2223,1.224,1.2043,1.2043,1.2043,0,1.1484,1.1571,1.1564,1.1629,1.1658,1.1627,1.17,1.1725,1.1776,1.1796,1.1766,1.1874,1.1895,1.1992,1.2023,1.2045,1.2062,1.2028,1.2165,1.2178,1.219,1.2232,1.2249,1.2048,1.2047,1.2047,1.2046,0,1.1642,1.1702,1.1757,1.1807,1.1843,1.1912,1.1913,1.1949,1.1938,1.1944,1.2024,1.2048,1.2099,1.2121,1.2112,1.2216,1.2197,1.2167,1.2112,1.2213,1.2251,1.2268,1.2054,1.2052,1.2051,1.205,0,0,1.1809,1.1852,1.1873,1.1893,1.1931,1.1977,1.2042,1.2092,1.2122,1.2158,1.2211,1.2285,1.2255,1.2283,1.2275,1.232,1.2417,1.2283,1.2283,1.2305,1.2529,1.2551,1.257,1.2402,1.2405,1.2407,1.2526,0,1.1934,1.2051,1.2045,1.2153,1.2206,1.2176,1.2232,1.226,1.2267,1.2312,1.2319,1.237,1.2329,1.2345,1.2388,1.2397,1.2462,1.2388,1.2448,1.245,1.2439,1.2591,1.2615,1.2726,1.2541,1.2544,1.2546,0,1.2097,1.2137,1.2251,1.2277,1.2299,1.2351,1.2394,1.2438,1.2468,1.2469,1.2499,1.2483,1.2546,1.249,1.2576,1.2526,1.255,1.2557,1.2561,1.2565,1.2503,1.2597,1.2761,1.2777,1.257,1.2568,1.2566,0,1.2203,1.2287,1.2364,1.2383,1.2417,1.2453,1.2469,1.2495,1.2525,1.2562,1.258,1.2624,1.2648,1.2681,1.2676,1.2636,1.2762,1.2707,1.2762,1.2763,1.279,1.2788,1.2958,1.2808,1.2808,1.2808,1.2807,0,1.2343,1.2413,1.2412,1.246,1.2536,1.2527,1.2602,1.2613,1.2636,1.2684,1.266,1.2704,1.2696,1.2739,1.2736,1.2805,1.2817,1.2818,1.2816,1.2819,1.2819,1.2834,1.2825,1.2812,1.2811,1.281,1.281,0,1.2475,1.2478,1.256,1.2585,1.2592,1.2647,1.2667,1.271,1.2715,1.2774,1.2788,1.2794,1.2843,1.2842,1.2899,1.2896,1.298,1.297,1.2971,1.2968,1.3023,1.3017,1.3208,1.3231,1.3068,1.307,1.3071,0,1.2563,1.2616,1.2646,1.2676,1.2694,1.2743,1.2772,1.2765,1.2796,1.2832,1.287,1.2918,1.2955,1.3035,1.3044,1.3086,1.3075,1.3139,1.3081,1.3082,1.3073,1.3069,1.3073,1.315,1.3152,1.3153,1.3154,0,1.2718,1.2716,1.276,1.2803,1.2839,1.2872,1.2903,1.2929,1.2924,1.2959,1.301,1.3039,1.3096,1.3142,1.3182,1.3196,1.3174,1.3172,1.3187,1.319,1.3187,1.3187,1.2999,1.3168,1.3167,1.3166,1.3165,1.3164,1.2829,1.2873,1.29,1.2949,1.2971,1.2999,1.3041,1.3049,1.3092,1.3138,1.313,1.3186,1.3211,1.3262,1.3279,1.3321,1.3298,1.332,1.3326,1.3331,1.3336,1.3182,1.3329,1.3328,1.3328,1.3328,1.3327,0,1.298,1.2996,1.304,1.3084,1.3121,1.3098,1.3129,1.3161,1.3211,1.3237,1.3274,1.333,1.3374,1.3385,1.3427,1.3458,1.3449,1.3469,1.3466,1.3469,1.3355,1.3337,1.3476,1.3476,1.3476,1.3476,1.3476,1.3476,1.3063,1.3135,1.3136,1.3218,1.3232,1.3287,1.3307,1.3332,1.3352,1.3417,1.3453,1.346,1.3479,1.3521,1.356,1.3562,1.3577,1.3601,1.3599,1.3492,1.3477,1.3463,1.3446,1.3605,1.3605,1.3708,1.3709,1.371]}]]